Location: Riverton
(43.0250°N, 108.3790°W)
Time: 17:47:07
(UTC-07:00)

Amateur Radio Satellites - All Passes

Search period start: 05 December 2016 17:17
Search period end: 06 December 2016 17:17
Location: Riverton, 43.0250°N, 108.3790°W

Satellite Date Start Highest point End Downlink Frequencies (MHz)
Time Altitude Azimuth
GOMX 1 05 Dec 17:24:49 17:29:21 77° 258° (WSW) 17:34:17 467.674
CINEMA 3 05 Dec 17:25:16 17:27:57 15° 60° (ENE) 17:30:39 145.822/145.860
Cosmos 2491 05 Dec 17:33:17 17:41:36 46° 73° (ENE) 17:49:52 435.465 / 435.565
NOAA 15 05 Dec 17:33:58 17:39:12 86° 76° (ENE) 17:44:29 137.62
Cubesat XI-IV 05 Dec 17:35:02 17:40:24 78° 74° (ENE) 17:45:49 437.490
DOVE 4 05 Dec 17:37:41 17:42:24 63° 73° (ENE) 17:47:26 437.250
CUBESAT XI-V 05 Dec 17:43:53 17:48:27 56° 287° (WNW) 17:53:02 437.345
CUTE 1.7 + AOD 2 05 Dec 17:44:04 17:44:27 10° 61° (ENE) 17:44:51 437.475
RS-15 05 Dec 17:45:31 17:57:16 54° 249° (WSW) 18:08:41 29.354- 29.394
BRITE-PL 05 Dec 17:48:31 17:51:30 18° 270° (W) 17:54:36 437.365/2234.400
CANX-2 05 Dec 17:59:19 18:02:07 18° 65° (ENE) 18:04:55 2200.000
LilacSat-2 05 Dec 18:00:56 18:04:39 46° 261° (W) 18:08:23 437.200
YUBILEINY 05 Dec 18:03:19 18:10:16 28° 81° (E) 18:17:16 435.215
AIST 2 05 Dec 18:16:30 18:19:33 20° 248° (WSW) 18:22:37 435.215
KKS-1 05 Dec 18:19:45 18:20:27 10° 302° (WNW) 18:21:07 437.445
STARS 05 Dec 18:25:11 18:28:01 17° 297° (WNW) 18:30:49 437.465
SEEDS 05 Dec 18:25:32 18:28:31 19° 66° (ENE) 18:31:31 437.485
HO-68 05 Dec 18:31:26 18:38:21 55° 67° (ENE) 18:45:19 435.675
UWE-3 05 Dec 18:31:56 18:33:03 11° 60° (ENE) 18:34:09 435.000/436.395/437.385
COMPASS 1 05 Dec 18:37:10 18:39:54 17° 65° (ENE) 18:42:39 437.405
ISS 05 Dec 18:45:28 18:48:10 23° 346° (NNW) 18:50:53 145.825
AIST 1 05 Dec 18:45:29 18:47:06 12° 83° (E) 18:48:43
CUTE-I 05 Dec 18:50:42 18:54:55 23° 267° (W) 18:59:11 437.470
NOAA 18 05 Dec 18:55:03 18:59:59 33° 263° (W) 19:04:58 137.9125
PCSat 05 Dec 18:58:39 19:01:55 16° 38° (NE) 19:05:11 145.827
CINEMA 3 05 Dec 18:59:29 19:04:24 77° 258° (WSW) 19:09:27 145.822/145.860
SO-50 05 Dec 19:07:15 19:09:47 14° 109° (ESE) 19:12:19 436.795
ZACube-1 05 Dec 19:12:04 19:14:59 17° 64° (ENE) 19:17:51 437.345
CUTE 1.7 + AOD 2 05 Dec 19:15:25 19:19:38 82° 257° (WSW) 19:23:52 437.475
DOVE 4 05 Dec 19:17:46 19:20:35 15° 272° (W) 19:23:30 437.250
NOAA 15 05 Dec 19:17:47 19:19:39 12° 272° (W) 19:21:32 137.62
Cubesat XI-IV 05 Dec 19:18:23 19:21:04 14° 271° (W) 19:23:47 437.490
FUNcube-1 05 Dec 19:19:47 19:22:54 19° 65° (ENE) 19:25:59 145.935
CUBEBUG 2 05 Dec 19:20:49 19:25:23 49° 72° (ENE) 19:29:57 437.445
Cosmos 2504 05 Dec 19:26:10 19:33:58 46° 87° (E) 19:42:11 435.465 / 435.565
Cosmos 2491 05 Dec 19:30:24 19:38:18 41° 274° (W) 19:46:11 435.465 / 435.565
STRAND 1 05 Dec 19:32:18 19:37:23 65° 102° (ESE) 19:42:26 437.568
CANX-2 05 Dec 19:33:36 19:37:38 43° 261° (W) 19:41:41 2200.000
AAUSAT CUBESAT 2 05 Dec 19:41:10 19:45:14 67° 75° (ENE) 19:49:19 437.432
Oscar 11 05 Dec 19:50:04 19:53:57 33° 70° (ENE) 19:57:51 145.826/435.025
YUBILEINY 05 Dec 19:57:43 20:06:20 65° 282° (WNW) 20:15:05 435.215
SEEDS 05 Dec 20:00:05 20:03:57 37° 262° (W) 20:07:52 437.485
UWE-3 05 Dec 20:04:05 20:08:46 88° 80° (E) 20:13:25 435.000/436.395/437.385
COMPASS 1 05 Dec 20:11:13 20:15:08 42° 262° (W) 20:19:04 437.405
CUSAT 1 05 Dec 20:12:48 20:16:17 51° 79° (ENE) 20:20:48 437.405
AIST 1 05 Dec 20:19:51 20:24:06 60° 280° (W) 20:28:25
HO-68 05 Dec 20:20:15 20:26:22 30° 265° (W) 20:32:32 435.675
ISS 05 Dec 20:23:02 20:25:30 19° 6° (N) 20:27:57 145.825
PCSat 05 Dec 20:40:48 20:46:15 76° 59° (ENE) 20:51:40 145.827
HUMSAT D 05 Dec 20:42:46 20:46:12 25° 68° (ENE) 20:49:36 437.325/437.525
DELFI C3 05 Dec 20:43:26 20:47:10 44° 72° (ENE) 20:50:55 145.870
SO-50 05 Dec 20:44:56 20:49:42 73° 306° (NW) 20:54:25 436.795
ZACube-1 05 Dec 20:46:23 20:50:51 53° 260° (W) 20:55:17 437.345
PRISM 05 Dec 20:46:39 20:50:08 25° 96° (E) 20:53:36 437.425
FUNcube-1 05 Dec 20:54:24 20:58:47 47° 261° (W) 21:03:08 145.935
DANDE 05 Dec 20:55:46 20:58:15 28° 78° (ENE) 21:01:07 436.750
CUBEBUG 2 05 Dec 20:58:54 21:02:14 19° 268° (W) 21:05:34 437.445
STRAND 1 05 Dec 21:12:46 21:16:01 17° 299° (WNW) 21:19:16 437.568
UNISAT 6 05 Dec 21:14:15 21:15:47 12° 89° (E) 21:17:19 437.425
Cosmos 2504 05 Dec 21:19:32 21:27:23 42° 288° (WNW) 21:35:41 435.465 / 435.565
AAUSAT CUBESAT 2 05 Dec 21:20:40 21:21:08 10° 271° (W) 21:21:36 437.432
Oscar 11 05 Dec 21:26:45 21:30:08 22° 266° (W) 21:33:33 145.826/435.025
TIGRISAT 05 Dec 21:42:46 21:46:14 22° 93° (E) 21:49:37 435.000
ANTELSAT 05 Dec 21:44:01 21:47:38 24° 94° (E) 21:51:10 437.575/2403.000
ESTCUBE 1 05 Dec 21:50:52 21:54:16 22° 65° (ENE) 21:57:41 437.505/2401.250
CUSAT 1 05 Dec 21:56:54 21:58:04 11° 267° (W) 21:59:19 437.405
ISS 05 Dec 21:59:25 22:02:37 43° 26° (NNE) 22:05:47 145.825
AISAT 05 Dec 22:00:25 22:02:21 13° 60° (ENE) 22:04:16 437.250
YUBILEINY 05 Dec 22:01:06 22:05:10 14° 305° (NW) 22:09:16 435.215
HUMSAT D 05 Dec 22:17:59 22:21:41 29° 264° (W) 22:25:22 437.325/437.525
DELFI C3 05 Dec 22:20:05 22:22:12 14° 269° (W) 22:24:21 145.870
PRISM 05 Dec 22:21:49 22:25:23 28° 292° (WNW) 22:28:57 437.425
CUBEBUG 1 05 Dec 22:25:06 22:28:52 29° 68° (ENE) 22:32:39 437.445
PCSat 05 Dec 22:25:53 22:28:58 16° 256° (WSW) 22:32:03 145.827
SO-50 05 Dec 22:28:24 22:30:59 14° 325° (NW) 22:33:33 436.795
VELOX 1 05 Dec 22:35:18 22:38:57 26° 67° (ENE) 22:42:39 145.980
UNISAT 6 05 Dec 22:48:36 22:52:59 66° 286° (WNW) 22:57:15 437.425
DX 1 05 Dec 22:50:00 22:53:15 21° 65° (ENE) 22:56:31 434.975-435.025
UKube-1 05 Dec 22:57:54 23:00:56 19° 64° (ENE) 23:03:58 .
SPROUT 05 Dec 23:09:58 23:13:57 38° 70° (ENE) 23:17:57 437.525
TIGRISAT 05 Dec 23:19:01 23:23:00 34° 291° (WNW) 23:26:53 435.000
ANTELSAT 05 Dec 23:20:29 23:24:22 31° 292° (WNW) 23:28:11 437.575/2403.000
JAS-2 05 Dec 23:22:59 23:28:00 48° 100° (E) 23:33:13 435.910
ESTCUBE 1 05 Dec 23:26:40 23:30:50 39° 262° (W) 23:35:03 437.505/2401.250
NANOSAT C BR1 05 Dec 23:29:23 23:33:16 34° 97° (E) 23:37:07 145.865
AISAT 05 Dec 23:33:47 23:38:12 73° 258° (WSW) 23:42:40 437.250
QB50P2 05 Dec 23:34:51 23:38:58 46° 99° (E) 23:43:01 145.880/145.840
POLYITAN 1 05 Dec 23:35:25 23:39:29 43° 99° (E) 23:43:30 437.675
ISS 05 Dec 23:36:08 23:39:00 27° 223° (SW) 23:41:51 145.825
50 SAT 05 Dec 23:40:24 23:43:53 69° 258° (WSW) 23:47:24 437.505
QB50P1 05 Dec 23:48:27 23:52:40 61° 101° (E) 23:56:50 145.935-145.965
DUCHIFAT 1 05 Dec 23:51:32 23:55:42 56° 100° (E) 23:59:49 145.980
CUBEBUG 1 06 Dec 00:01:24 00:05:06 27° 265° (W) 00:08:50 437.445
POPSAT HIP 1 06 Dec 00:09:56 00:14:13 78° 283° (WNW) 00:18:25 437.405
PHONESAT 2.4 06 Dec 00:10:44 00:11:58 12° 153° (SSE) 00:13:10 2401.200-2431.200
VELOX 1 06 Dec 00:11:23 00:15:18 31° 264° (W) 00:19:15 145.980
M-CUBED/EXP-1 PRIME 06 Dec 00:17:21 00:19:36 14° 55° (NE) 00:21:56 437.505
Cosmos 2499 06 Dec 00:18:52 00:27:04 53° 89° (E) 00:35:37 435.465 / 435.565
SWISSCUBE 06 Dec 00:23:17 00:24:48 11° 58° (ENE) 00:26:20 437.505
DX 1 06 Dec 00:25:07 00:29:11 39° 262° (W) 00:33:17 434.975-435.025
BEESAT 06 Dec 00:27:25 00:28:53 11° 58° (ENE) 00:30:20 436.000
TISAT 1 06 Dec 00:32:24 00:36:30 51° 72° (ENE) 00:40:38 437.305
UKube-1 06 Dec 00:32:34 00:36:39 42° 261° (W) 00:40:48 .
GONETS M04 06 Dec 00:35:02 00:43:32 60° 91° (E) 00:52:01
SPROUT 06 Dec 00:46:50 00:50:00 20° 267° (W) 00:53:11 437.525
BUGSAT 1 06 Dec 00:49:18 00:53:31 85° 287° (WNW) 00:57:40 437.445
AO-85 06 Dec 00:51:07 00:53:07 12° 109° (ESE) 00:55:05 145.980
ITUPSAT 1 06 Dec 00:52:44 00:56:07 20° 63° (ENE) 00:59:30 437.325
NANOSAT C BR1 06 Dec 01:05:32 01:08:47 22° 294° (WNW) 01:12:00 145.865
JAS-2 06 Dec 01:08:56 01:12:51 22° 297° (WNW) 01:16:50 435.910
QB50P2 06 Dec 01:11:38 01:14:23 17° 296° (WNW) 01:17:08 145.880/145.840
POLYITAN 1 06 Dec 01:12:06 01:14:57 18° 296° (WNW) 01:17:47 437.675
QB50P1 06 Dec 01:25:51 01:27:55 13° 298° (WNW) 01:29:59 145.935-145.965
DUCHIFAT 1 06 Dec 01:28:39 01:30:54 14° 298° (WNW) 01:33:09 145.980
MOZHAYETS 4 06 Dec 01:34:28 01:36:08 12° 60° (ENE) 01:37:49
AUBIESAT-1 06 Dec 01:37:09 01:41:16 72° 69° (ENE) 01:45:42 437.475
Gurwin Techsat 1B 06 Dec 01:39:14 01:44:05 34° 97° (E) 01:48:53 435.225
O/OREOS (USA 219) 06 Dec 01:39:47 01:44:14 58° 64° (ENE) 01:48:38 437.305
Oscar 19 06 Dec 01:44:04 01:49:17 74° 103° (ESE) 01:54:28 437.125/150
PHONESAT 2.4 06 Dec 01:44:16 01:46:46 36° 169° (SSE) 01:49:15 2401.200-2431.200
M-CUBED/EXP-1 PRIME 06 Dec 01:49:22 01:53:26 69° 253° (WSW) 01:57:52 437.505
SWISSCUBE 06 Dec 01:57:05 02:01:51 89° 72° (ENE) 02:06:39 437.505
BEESAT 06 Dec 02:01:07 02:05:54 88° 76° (ENE) 02:10:42 436.000
KKS-1 06 Dec 02:06:06 02:07:15 11° 59° (ENE) 02:08:25 437.445
TISAT 1 06 Dec 02:10:03 02:12:26 15° 269° (W) 02:14:49 437.305
Cosmos 2499 06 Dec 02:12:40 02:20:29 37° 290° (WNW) 02:28:36 435.465 / 435.565
ITAMSAT 1 06 Dec 02:13:36 02:16:46 16° 91° (E) 02:19:53 435.822/435.867
AO-85 06 Dec 02:28:05 02:33:02 84° 305° (NW) 02:37:36 145.980
ITUPSAT 1 06 Dec 02:28:55 02:33:34 51° 260° (W) 02:38:14 437.325
GONETS M04 06 Dec 02:33:18 02:40:50 32° 292° (WNW) 02:48:25
MOZHAYETS 4 06 Dec 03:08:02 03:12:38 82° 257° (WSW) 03:17:15
CUBESAT XI-V 06 Dec 03:12:20 03:15:22 18° 63° (ENE) 03:18:24 437.345
AUBIESAT-1 06 Dec 03:15:01 03:16:14 11° 267° (W) 03:17:29 437.475
PHONESAT 2.4 06 Dec 03:19:14 03:21:47 44° 186° (S) 03:24:21 2401.200-2431.200
Gurwin Techsat 1B 06 Dec 03:19:16 03:23:57 32° 294° (WNW) 03:28:37 435.225
O/OREOS (USA 219) 06 Dec 03:20:48 03:23:06 14° 261° (W) 03:25:22 437.305
Oscar 19 06 Dec 03:24:54 03:27:59 16° 300° (WNW) 03:31:03 437.125/150
SO-50 06 Dec 03:35:53 03:39:16 20° 40° (NE) 03:42:37 436.795
KKS-1 06 Dec 03:38:38 03:43:06 87° 259° (W) 03:47:37 437.445
AO-7 06 Dec 03:40:03 03:48:16 56° 103° (ESE) 03:56:26 29.400- 29.500
STARS 06 Dec 03:44:52 03:49:10 51° 72° (ENE) 03:53:29 437.465
ITAMSAT 1 06 Dec 03:51:32 03:56:40 65° 288° (WNW) 04:01:47 435.822/435.867
AO-85 06 Dec 04:11:20 04:14:04 15° 322° (NW) 04:16:41 145.980
YUBILEINY 06 Dec 04:12:10 04:16:37 14° 55° (NE) 04:21:04 435.215
BRITE-PL 06 Dec 04:12:22 04:15:49 17° 90° (E) 04:19:20 437.365/2234.400
HORYU 2 06 Dec 04:44:04 04:47:12 19° 93° (E) 04:50:18 437.375
CUBESAT XI-V 06 Dec 04:47:52 04:52:20 52° 261° (W) 04:56:51 437.345
PHONESAT 2.4 06 Dec 04:54:43 04:56:43 19° 201° (SSW) 04:58:41 2401.200-2431.200
STRAND 1 06 Dec 05:12:56 05:15:37 14° 59° (ENE) 05:18:19 437.568
SO-50 06 Dec 05:15:40 05:20:10 63° 239° (WSW) 05:24:33 436.795
BEESAT 3 06 Dec 05:15:50 05:19:43 78° 122° (ESE) 05:23:40 437.485
Cosmos 2504 06 Dec 05:18:35 05:24:24 19° 59° (ENE) 05:30:02 435.465 / 435.565
STARS 06 Dec 05:23:08 05:25:48 16° 268° (W) 05:28:30 437.465
GOMX 1 06 Dec 05:25:18 05:30:16 34° 95° (E) 05:35:13 467.674
CUTE-I 06 Dec 05:26:42 05:30:07 17° 91° (E) 05:33:32 437.470
AO-7 06 Dec 05:33:17 05:40:43 37° 302° (WNW) 05:48:09 29.400- 29.500
LilacSat-2 06 Dec 05:34:07 05:36:36 17° 92° (E) 05:39:03 437.200
DOVE 4 06 Dec 05:36:33 05:40:14 19° 90° (E) 05:43:49 437.250
NOAA 18 06 Dec 05:36:59 05:39:34 13° 89° (E) 05:42:07 137.9125
BEESAT 2 06 Dec 05:45:02 05:48:58 73° 120° (ESE) 05:52:56 435.950
NOAA 15 06 Dec 05:48:30 05:53:06 30° 96° (E) 05:57:41 137.62
BRITE-PL 06 Dec 05:49:17 05:54:41 71° 285° (WNW) 06:00:18 437.365/2234.400
Cubesat XI-IV 06 Dec 05:51:48 05:56:25 29° 95° (E) 06:00:58 437.490
RS-15 06 Dec 05:59:39 06:08:35 26° 100° (E) 06:17:46 29.354- 29.394
YUBILEINY 06 Dec 06:06:33 06:15:22 68° 79° (E) 06:24:09 435.215
HORYU 2 06 Dec 06:19:44 06:23:57 42° 289° (WNW) 06:28:06 437.375
AIST 1 06 Dec 06:25:53 06:29:57 35° 76° (ENE) 06:33:59
Cosmos 2491 06 Dec 06:35:22 06:43:44 51° 89° (E) 06:52:05 435.465 / 435.565
STRAND 1 06 Dec 06:48:58 06:54:07 81° 256° (WSW) 06:59:17 437.568
CINEMA 3 06 Dec 06:54:09 06:58:07 25° 93° (E) 07:01:57 145.822/145.860
BEESAT 3 06 Dec 06:55:42 06:57:51 14° 321° (NW) 07:00:03 437.485
CUTE 1.7 + AOD 2 06 Dec 07:00:28 07:03:04 16° 91° (E) 07:05:39 437.475
GOMX 1 06 Dec 07:03:22 07:08:16 35° 292° (WNW) 07:13:12 467.674
CUTE-I 06 Dec 07:05:20 07:10:38 63° 287° (WNW) 07:15:51 437.470
LilacSat-2 06 Dec 07:07:34 07:11:01 34° 289° (WNW) 07:14:25 437.200
Cosmos 2504 06 Dec 07:10:27 07:19:21 82° 82° (E) 07:27:42 435.465 / 435.565
DOVE 4 06 Dec 07:13:03 07:18:17 58° 287° (WNW) 07:23:21 437.250
NOAA 18 06 Dec 07:15:19 07:20:54 84° 286° (WNW) 07:26:24 137.9125
CANX-2 06 Dec 07:17:40 07:21:20 28° 96° (E) 07:24:58 2200.000
BEESAT 2 06 Dec 07:24:52 07:27:14 15° 321° (NW) 07:29:36 435.950
NOAA 15 06 Dec 07:28:06 07:32:54 37° 293° (WNW) 07:37:42 137.62
BRITE-PL 06 Dec 07:30:46 07:32:17 11° 302° (WNW) 07:33:49 437.365/2234.400
Cubesat XI-IV 06 Dec 07:31:37 07:36:33 38° 292° (WNW) 07:41:26 437.490
PRISM 06 Dec 07:37:11 07:40:16 21° 66° (ENE) 07:43:21 437.425
SEEDS 06 Dec 07:42:45 07:46:28 31° 96° (E) 07:50:12 437.485
HO-68 06 Dec 07:45:24 07:52:26 53° 101° (E) 07:59:25 435.675
COMPASS 1 06 Dec 07:53:01 07:56:34 27° 95° (E) 08:00:06 437.405
UWE-3 06 Dec 07:54:18 07:56:57 16° 91° (E) 07:59:33 435.000/436.395/437.385
AIST 1 06 Dec 08:04:01 08:07:17 21° 273° (W) 08:10:33
YUBILEINY 06 Dec 08:04:25 08:11:24 27° 279° (W) 08:18:23 435.215
RS-15 06 Dec 08:07:36 08:19:26 88° 303° (WNW) 08:31:51 29.354- 29.394
AIST 2 06 Dec 08:13:22 08:17:27 69° 120° (ESE) 08:21:36 435.215
UNISAT 6 06 Dec 08:13:36 08:16:02 14° 62° (ENE) 08:18:29 437.425
CINEMA 3 06 Dec 08:30:55 08:35:19 35° 291° (WNW) 08:39:32 145.822/145.860
Cosmos 2491 06 Dec 08:32:52 08:40:48 37° 290° (WNW) 08:48:47 435.465 / 435.565
ZACube-1 06 Dec 08:34:17 08:37:51 26° 95° (E) 08:41:20 437.345
CUTE 1.7 + AOD 2 06 Dec 08:35:06 08:39:08 45° 288° (WNW) 08:43:10 437.475
FUNcube-1 06 Dec 08:41:47 08:45:28 28° 95° (E) 08:49:04 145.935
TIGRISAT 06 Dec 08:41:57 08:45:44 25° 66° (ENE) 08:49:29 435.000
ANTELSAT 06 Dec 08:43:20 08:47:14 27° 67° (ENE) 08:51:06 437.575/2403.000
CUBEBUG 2 06 Dec 08:47:19 08:51:46 86° 282° (WNW) 08:56:01 437.445
CANX-2 06 Dec 08:53:36 08:57:05 26° 292° (WNW) 09:00:35 2200.000
AAUSAT CUBESAT 2 06 Dec 08:57:34 09:01:41 72° 285° (WNW) 09:05:49 437.432
NOAA 18 06 Dec 08:58:06 09:00:41 14° 304° (NW) 09:03:17 137.9125
Cosmos 2504 06 Dec 09:05:26 09:11:35 22° 282° (WNW) 09:17:31 435.465 / 435.565
PRISM 06 Dec 09:11:40 09:15:21 33° 262° (W) 09:19:04 437.425
Oscar 11 06 Dec 09:11:44 09:16:01 61° 101° (E) 09:20:15 145.826/435.025
CUSAT 1 06 Dec 09:17:53 09:20:55 42° 98° (E) 09:23:32 437.405
SEEDS 06 Dec 09:18:42 09:22:01 23° 293° (WNW) 09:25:20 437.485
AO-85 06 Dec 09:19:56 09:22:10 14° 37° (NE) 09:24:20 145.980
COMPASS 1 06 Dec 09:28:34 09:32:02 26° 292° (WNW) 09:35:30 437.405
UWE-3 06 Dec 09:29:33 09:33:41 46° 288° (WNW) 09:37:43 435.000/436.395/437.385
HO-68 06 Dec 09:33:36 09:39:52 33° 299° (WNW) 09:46:06 435.675
JAS-2 06 Dec 09:36:47 09:41:48 26° 65° (ENE) 09:46:26 435.910
UNISAT 6 06 Dec 09:47:30 09:52:11 70° 258° (WSW) 09:56:51 437.425
AIST 2 06 Dec 09:53:40 09:56:23 17° 320° (NW) 09:59:07 435.215
DELFI C3 06 Dec 09:54:06 09:58:04 66° 100° (E) 10:02:01 145.870
HUMSAT D 06 Dec 09:59:49 10:03:38 37° 98° (E) 10:07:26 437.325/437.525
DANDE 06 Dec 10:04:50 10:09:16 46° 98° (E) 10:12:41 436.750
Cosmos 2499 06 Dec 10:10:19 10:16:26 21° 60° (ENE) 10:22:17 435.465 / 435.565
ZACube-1 06 Dec 10:10:29 10:14:05 27° 292° (WNW) 10:17:38 437.345
TIGRISAT 06 Dec 10:17:53 10:22:13 37° 263° (W) 10:26:33 435.000
FUNcube-1 06 Dec 10:18:09 10:21:36 25° 293° (WNW) 10:24:59 145.935
ANTELSAT 06 Dec 10:19:32 10:23:47 34° 263° (W) 10:28:01 437.575/2403.000
NANOSAT C BR1 06 Dec 10:22:15 10:25:57 29° 69° (ENE) 10:29:40 145.865
RS-15 06 Dec 10:23:01 10:33:50 36° 331° (NNW) 10:44:58 29.354- 29.394
QB50P2 06 Dec 10:28:03 10:32:02 39° 71° (ENE) 10:36:02 145.880/145.840
POLYITAN 1 06 Dec 10:28:37 10:32:34 37° 70° (ENE) 10:36:32 437.675
QB50P1 06 Dec 10:41:20 10:45:28 50° 73° (ENE) 10:49:38 145.935-145.965
DUCHIFAT 1 06 Dec 10:43:51 10:47:55 46° 72° (ENE) 10:52:01 145.980
GONETS M04 06 Dec 10:44:19 10:51:50 31° 68° (ENE) 10:59:18
Oscar 11 06 Dec 10:49:26 10:51:38 14° 298° (WNW) 10:53:50 145.826/435.025
AO-85 06 Dec 10:59:08 11:03:07 76° 239° (WSW) 11:06:58 145.980
POPSAT HIP 1 06 Dec 11:02:43 11:07:00 86° 79° (E) 11:11:20 437.405
ESTCUBE 1 06 Dec 11:17:48 11:22:03 39° 98° (E) 11:26:17 437.505/2401.250
JAS-2 06 Dec 11:20:20 11:26:40 52° 260° (W) 11:32:18 435.910
PCSat 06 Dec 11:23:07 11:28:25 58° 115° (ESE) 11:33:44 145.827
AISAT 06 Dec 11:23:41 11:26:59 20° 93° (E) 11:30:15 437.250
Oscar 19 06 Dec 11:25:09 11:28:14 16° 60° (ENE) 11:31:20 437.125/150
DELFI C3 06 Dec 11:31:06 11:32:20 11° 298° (WNW) 11:33:35 145.870
HUMSAT D 06 Dec 11:36:09 11:38:59 18° 294° (WNW) 11:41:49 437.325/437.525
BUGSAT 1 06 Dec 11:39:15 11:43:28 73° 75° (ENE) 11:47:43 437.445
CUBEBUG 1 06 Dec 11:48:05 11:52:26 50° 100° (E) 11:56:44 437.445
DANDE 06 Dec 11:50:22 11:51:53 12° 287° (WNW) 11:53:17 436.750
NANOSAT C BR1 06 Dec 11:58:06 12:01:39 25° 265° (W) 12:05:12 145.865
VELOX 1 06 Dec 11:59:49 12:04:07 44° 99° (E) 12:08:23 145.980
Cosmos 2499 06 Dec 12:02:12 12:10:54 89° 263° (W) 12:18:55 435.465 / 435.565
QB50P2 06 Dec 12:04:52 12:07:58 19° 267° (W) 12:11:05 145.880/145.840
POLYITAN 1 06 Dec 12:05:17 12:08:28 20° 267° (W) 12:11:41 437.675
DX 1 06 Dec 12:12:09 12:16:06 32° 97° (E) 12:20:01 434.975-435.025
UKube-1 06 Dec 12:18:41 12:22:26 28° 96° (E) 12:26:09 .
QB50P1 06 Dec 12:19:05 12:21:32 15° 269° (W) 12:24:00 145.935-145.965
DUCHIFAT 1 06 Dec 12:21:10 12:23:50 16° 268° (W) 12:26:31 145.980
SPROUT 06 Dec 12:30:13 12:34:30 65° 101° (E) 12:38:44 437.525
50 SAT 06 Dec 12:38:39 12:42:12 69° 285° (WNW) 12:45:45 437.505
GONETS M04 06 Dec 12:40:40 12:49:11 62° 268° (W) 12:57:43
RS-15 06 Dec 12:41:29 12:51:20 26° 6° (N) 13:01:12 29.354- 29.394
AO-7 06 Dec 12:50:57 12:56:31 20° 48° (NE) 13:02:04 29.400- 29.500
ESTCUBE 1 06 Dec 12:55:09 12:58:37 22° 295° (WNW) 13:02:04 437.505/2401.250
AISAT 06 Dec 12:59:23 13:03:35 41° 290° (WNW) 13:07:46 437.250
Gurwin Techsat 1B 06 Dec 13:01:04 13:06:17 60° 72° (ENE) 13:11:32 435.225
Oscar 19 06 Dec 13:01:51 13:06:57 71° 257° (WSW) 13:12:07 437.125/150
PCSat 06 Dec 13:07:45 13:12:10 25° 315° (NW) 13:16:39 145.827
BUGSAT 1 06 Dec 13:19:05 13:19:19 10° 271° (W) 13:19:33 437.445
CUBEBUG 1 06 Dec 13:25:25 13:28:18 17° 297° (WNW) 13:31:11 437.445
BEESAT 3 06 Dec 13:31:54 13:35:52 60° 54° (NE) 13:39:47 437.485
ITAMSAT 1 06 Dec 13:31:57 13:36:22 29° 65° (ENE) 13:40:47 435.822/435.867
VELOX 1 06 Dec 13:37:03 13:40:15 19° 296° (WNW) 13:43:25 145.980
DX 1 06 Dec 13:48:33 13:52:09 25° 294° (WNW) 13:55:45 434.975-435.025
TISAT 1 06 Dec 13:50:35 13:54:51 81° 102° (ESE) 13:59:03 437.305
UKube-1 06 Dec 13:54:42 13:58:24 28° 293° (WNW) 14:02:05 .
SWISSCUBE 06 Dec 13:57:02 14:00:37 21° 93° (E) 14:04:10 437.505
Cosmos 2499 06 Dec 13:57:23 14:02:37 18° 284° (WNW) 14:07:40 435.465 / 435.565
BEESAT 06 Dec 14:01:04 14:04:36 20° 93° (E) 14:08:07 436.000
BEESAT 2 06 Dec 14:01:57 14:05:57 57° 53° (NE) 14:09:55 435.950
SPROUT 06 Dec 14:07:52 14:09:53 13° 298° (WNW) 14:11:54 437.525
ITUPSAT 1 06 Dec 14:28:24 14:32:49 37° 98° (E) 14:37:13 437.325
AO-7 06 Dec 14:39:44 14:48:01 79° 69° (ENE) 14:56:23 29.400- 29.500
GONETS M04 06 Dec 14:42:36 14:44:03 10° 289° (WNW) 14:45:31
Gurwin Techsat 1B 06 Dec 14:43:03 14:46:37 18° 269° (W) 14:50:13 435.225
AUBIESAT-1 06 Dec 14:49:00 14:53:27 47° 104° (ESE) 14:57:42 437.475
RS-15 06 Dec 14:56:21 15:08:09 46° 38° (NE) 15:19:39 29.354- 29.394
AIST 2 06 Dec 14:57:32 14:58:34 11° 33° (NNE) 14:59:36 435.215
M-CUBED/EXP-1 PRIME 06 Dec 15:01:33 15:06:15 79° 107° (ESE) 15:10:46 437.505
MOZHAYETS 4 06 Dec 15:02:45 15:06:16 21° 93° (E) 15:09:45
ITAMSAT 1 06 Dec 15:10:50 15:15:40 38° 262° (W) 15:20:32 435.822/435.867
BEESAT 3 06 Dec 15:11:08 15:13:00 13° 251° (WSW) 15:14:51 437.485
BRITE-PL 06 Dec 15:25:11 15:27:54 16° 62° (ENE) 15:30:44 437.365/2234.400
TISAT 1 06 Dec 15:28:58 15:29:49 11° 300° (WNW) 15:30:41 437.305
KKS-1 06 Dec 15:29:45 15:32:38 17° 92° (E) 15:35:31 437.445
SWISSCUBE 06 Dec 15:34:05 15:38:35 43° 290° (WNW) 15:43:04 437.505
BEESAT 06 Dec 15:38:04 15:42:35 44° 290° (WNW) 15:47:05 436.000
BEESAT 2 06 Dec 15:41:10 15:43:17 14° 250° (WSW) 15:45:22 435.950
HORYU 2 06 Dec 15:42:56 15:46:17 21° 64° (ENE) 15:49:37 437.375
O/OREOS (USA 219) 06 Dec 15:52:43 15:57:11 58° 109° (ESE) 16:01:40 437.305
ITUPSAT 1 06 Dec 16:06:35 16:10:28 25° 295° (WNW) 16:14:20 437.325
ISS 06 Dec 16:16:10 16:19:22 54° 143° (SE) 16:22:37 145.825
LilacSat-2 06 Dec 16:18:41 16:19:39 11° 63° (ENE) 16:20:37 437.200
AUBIESAT-1 06 Dec 16:24:04 16:27:29 21° 301° (WNW) 16:30:49 437.475
AIST 2 06 Dec 16:33:45 16:37:56 59° 53° (NE) 16:42:06 435.215
GOMX 1 06 Dec 16:34:27 16:38:38 34° 68° (ENE) 16:43:05 467.674
AO-7 06 Dec 16:35:24 16:41:36 23° 268° (W) 16:47:52 29.400- 29.500
M-CUBED/EXP-1 PRIME 06 Dec 16:37:34 16:40:03 14° 305° (NW) 16:42:30 437.505
MOZHAYETS 4 06 Dec 16:39:19 16:43:32 38° 290° (WNW) 16:47:45
DOVE 4 06 Dec 16:42:49 16:46:21 20° 62° (ENE) 16:50:00 437.250
CUBESAT XI-V 06 Dec 16:43:19 16:47:36 35° 97° (E) 16:51:54 437.345
Cosmos 2491 06 Dec 16:44:48 16:51:53 27° 65° (ENE) 16:58:54 435.465 / 435.565
CUTE-I 06 Dec 16:48:54 16:53:36 32° 66° (ENE) 16:58:18 437.470
BRITE-PL 06 Dec 17:01:41 17:05:53 53° 261° (W) 17:10:25 437.365/2234.400
NOAA 18 06 Dec 17:03:06 17:07:49 30° 64° (ENE) 17:12:34 137.9125
KKS-1 06 Dec 17:05:08 17:09:28 49° 289° (WNW) 17:13:45 437.445
